Dewpoint
73 72 72 70 71 71 69 67 56 61 58 54 54 56 55 62 62 61 60 62 59 65 66 63 60 59 61 60 59 61 61 56 55 47 44 58 70 71 72 72 72 73 73 73 74 74 75 73 75 76 76 76 76 76 76 75 75 75 75 76 76 76 75 75 75 75 75 75 75 75 75 75 76 76 76 75 75 75 75 74 75 75 74 74 75 75 75 75 75 75 75 75 74 75 74 75 75
72 71 72 71 69 69 64 68 59 57 57 54 55 59 59 61 61 59 59 60 61 63 65 64 63 63 64 63 61 59 59 63 64 63 66 69 71 72 72 72 72 72 73 73 74 74 75 75 76 76 76 76 76 76 76 75 76 76 76 76 75 76 76 75 75 75 75 75 75 74 74 75 75 76 76 76 76 75 75 75 75 74 74 75 75 75 75 75 75 75 75 76 75 75 74 75 75
69 69 69 70 68 69 67 66 55 55 53 50 55 58 62 59 59 60 62 63 64 64 64 64 64 65 63 63 59 60 56 65 65 66 67 70 68 71 72 72 72 72 73 73 74 74 74 76 77 76 76 76 76 76 76 76 76 76 75 75 75 75 75 75 75 75 75 75 75 75 75 75 75 75 75 75 74 74 75 75 74 75 75 75 74 75 75 75 75 75 75 75 75 75 75 75 75
67 68 67 68 66 68 61 61 58 55 52 54 54 59 60 59 60 63 64 64 64 63 63 63 60 66 63 59 61 62 62 63 66 66 66 67 67 72 72 73 73 73 73 73 73 74 74 75 76 76 75 76 76 76 76 75 76 75 75 76 76 76 75 75 75 75 75 75 75 75 75 74 75 75 75 75 75 75 74 74 75 75 75 75 75 75 75 76 76 76 75 75 75 75 75 75 74
68 70 70 70 66 62 62 59 58 57 53 54 54 59 60 61 62 63 64 64 63 63 64 63 60 63 65 61 61 59 60 65 66 67 67 70 72 72 72 73 73 73 73 73 73 73 74 76 76 76 76 76 76 76 76 76 75 75 76 76 75 75 75 75 75 74 74 74 74 75 75 75 75 74 75 75 74 75 74 74 74 74 75 75 75 75 75 76 76 75 76 76 75 75 75 74 75
71 70 72 71 64 68 64 57 56 56 58 60 56 58 61 62 62 63 65 64 64 64 65 62 59 60 60 61 63 62 63 61 66 66 69 70 72 72 73 73 72 72 72 72 73 73 74 76 76 76 76 76 76 75 76 75 75 76 76 76 75 75 75 75 75 75 75 74 74 74 74 75 75 74 74 74 74 74 74 74 75 75 75 75 75 75 75 76 75 75 75 75 75 75 75 74 74
66 70 70 68 68 67 58 56 56 57 60 62 60 60 62 64 64 63 63 63 65 64 64 61 60 60 59 61 63 65 67 66 66 67 70 71 72 72 72 72 72 72 72 72 73 73 74 76 76 76 76 75 75 76 75 75 76 76 76 76 75 75 75 75 75 75 74 75 75 74 74 74 75 75 74 74 74 75 74 74 74 75 74 74 75 75 75 76 75 75 74 74 75 75 74 74 74
72 66 66 61 59 61 57 58 58 59 60 62 63 62 64 64 64 63 62 61 59 60 62 60 61 60 60 63 61 65 66 68 68 70 71 71 72 72 72 72 72 72 72 73 73 74 76 76 76 76 75 76 75 75 75 75 75 74 75 75 75 75 75 75 75 75 75 75 75 74 74 74 74 74 74 74 74 74 74 74 74 75 75 74 74 75 74 75 74 74 74 74 74 75 74 75 75
72 69 68 62 58 60 58 57 59 62 61 63 63 65 66 66 65 63 62 64 60 61 59 59 60 58 61 62 63 66 68 69 70 71 71 71 71 71 71 72 72 72 72 73 74 75 76 76 76 76 75 75 75 75 75 75 75 75 75 75 75 75 75 75 75 75 75 75 75 74 74 74 74 74 74 74 74 74 74 74 75 75 74 75 74 75 75 74 74 74 74 75 75 74 74 74 75
70 68 61 61 62 56 57 57 58 60 61 63 63 64 65 65 64 65 63 63 60 61 61 61 61 60 62 62 64 66 68 70 70 70 71 71 71 71 71 72 72 72 73 73 74 75 76 76 76 75 75 75 76 75 75 75 75 75 75 75 75 75 75 75 76 75 75 75 74 74 74 74 74 74 74 74 74 74 74 74 74 75 74 75 75 74 74 74 74 74 74 74 74 74 74 74 75
63 68 66 59 57 56 54 56 59 60 61 63 64 65 65 66 65 65 64 62 62 61 61 62 61 61 62 63 64 68 69 69 69 69 70 70 70 71 72 72 73 73 73 74 75 75 75 75 75 75 75 76 75 74 74 74 74 75 75 75 75 75 76 75 75 75 75 75 74 74 74 74 74 74 74 74 75 74 74 74 74 74 75 75 75 74 75 74 74 74 74 74 74 74 74 74 75
60 62 63 57 57 56 57 57 59 60 62 62 61 64 66 66 66 62 63 60 61 61 60 61 60 62 62 63 64 67 68 68 69 69 70 70 70 72 72 73 73 73 74 75 75 75 75 75 75 76 75 76 75 74 74 74 74 74 74 75 75 75 75 75 75 75 75 75 74 74 74 74 74 74 74 74 74 74 74 74 74 74 74 75 75 74 75 74 74 74 74 74 74 74 74 74 74
62 64 60 59 57 58 58 57 58 60 60 61 62 65 68 66 65 64 62 61 61 60 60 64 62 61 60 62 65 66 66 67 68 69 69 70 71 72 72 72 73 74 75 75 75 75 75 75 75 75 75 76 75 74 73 73 74 75 75 75 75 75 75 75 75 75 74 74 74 74 74 74 74 74 74 74 74 74 74 74 74 75 74 75 74 74 74 74 74 74 74 74 74 75 73 75 75
63 64 61 57 60 59 58 58 59 57 58 62 65 66 66 65 64 65 63 60 60 60 62 62 62 62 62 63 64 64 65 67 68 68 69 70 71 71 72 72 73 74 74 75 75 75 75 75 75 75 75 75 75 75 74 74 73 74 75 75 75 75 74 75 75 75 75 75 75 74 74 74 74 74 74 74 74 74 74 75 75 75 74 75 75 75 75 75 75 75 74 74 74 74 74 75 74
64 67 62 60 59 59 59 57 58 58 58 63 65 66 65 66 66 67 64 61 62 63 62 63 62 60 59 60 62 64 65 67 68 68 69 70 71 71 72 72 73 74 74 75 75 75 75 75 75 75 75 75 75 74 73 72 74 74 75 75 75 75 74 75 74 75 75 74 74 74 74 74 74 75 75 74 74 74 74 74 74 74 74 75 75 75 75 75 74 75 74 74 74 74 74 74 74
67 66 62 57 57 58 58 59 59 58 59 63 65 66 65 66 67 64 65 67 62 63 62 61 62 64 61 61 62 64 66 67 68 69 70 70 70 70 71 72 73 73 74 74 74 75 75 74 75 75 75 74 74 74 74 73 73 74 74 75 75 75 75 74 74 74 74 74 74 74 74 74 74 74 75 74 74 75 75 74 75 74 74 74 75 74 74 74 74 74 75 73 74 74 74 74 74
70 66 57 56 55 58 59 59 60 57 62 64 66 66 62 63 67 69 71 70 61 61 64 63 64 62 62 62 64 65 66 68 69 69 69 69 69 70 71 72 72 73 74 74 74 74 74 74 74 74 74 74 74 74 74 74 74 75 75 75 74 74 74 73 74 74 74 74 74 74 75 74 74 74 74 74 74 75 75 75 74 74 75 75 75 74 75 75 75 75 74 74 74 74 74 74 73
66 59 56 53 57 58 60 60 62 64 62 64 65 66 63 62 65 67 70 67 63 63 62 63 62 62 63 64 65 66 67 67 68 68 68 68 69 69 70 71 72 72 73 73 74 74 74 74 74 74 74 74 74 74 74 75 75 75 74 74 75 74 74 73 73 73 73 73 75 74 74 74 73 72 73 75 75 75 75 75 74 75 75 75 75 75 75 74 74 74 74 74 74 74 75 73 73
63 60 56 53 59 63 64 64 66 64 63 64 65 67 64 63 65 66 64 62 62 60 61 61 62 63 64 64 65 66 66 67 67 67 67 68 68 69 69 70 71 72 72 73 73 73 74 74 74 74 73 73 74 74 75 75 74 74 74 74 75 74 74 73 74 73 72 73 74 74 75 74 73 74 74 75 75 75 75 75 75 75 75 75 75 75 75 75 74 74 74 74 74 76 73 73 73
66 58 56 57 61 65 66 67 66 67 65 64 65 66 65 65 67 68 62 61 61 60 59 61 62 62 63 64 65 65 66 67 67 67 67 68 68 68 69 69 70 71 71 72 72 73 74 74 73 73 73 73 73 74 74 73 73 74 74 74 74 74 74 74 73 73 72 73 73 73 74 74 74 73 74 75 74 74 74 75 75 75 76 76 76 76 75 75 74 74 74 76 77 75 73 73 73
65 61 58 58 62 61 65 67 67 67 66 65 65 65 64 65 66 67 62 59 60 60 61 61 62 62 63 64 65 65 65 66 67 67 67 67 68 68 69 69 70 70 71 71 72 73 73 73 73 73 73 73 73 74 73 73 73 73 73 74 74 74 73 73 73 72 73 73 73 74 74 74 74 74 74 74 74 74 74 74 74 74 74 75 76 73 73 75 74 73 74 75 74 74 74 74 73
62 60 61 63 62 61 65 66 68 66 67 66 64 62 62 68 67 66 61 58 58 60 60 62 63 63 63 64 64 65 65 66 66 67 67 67 67 68 69 69 70 70 70 71 71 72 73 73 73 73 73 73 73 73 73 74 73 73 73 73 73 73 73 73 72 73 73 73 73 74 74 73 73 73 73 73 73 73 73 73 73 73 73 73 75 72 73 73 73 73 73 73 73 74 74 73 73
59 60 60 62 61 64 64 66 66 66 66 65 63 63 65 65 64 66 65 63 62 64 61 63 63 63 64 64 64 64 65 66 66 66 67 67 67 68 68 68 69 69 70 70 71 72 73 73 73 73 73 73 73 73 74 73 72 72 73 73 73 73 73 73 73 73 73 73 73 74 73 73 73 72 73 72 72 73 73 72 72 72 72 73 74 72 72 73 73 72 72 73 73 74 74 73 73
61 60 60 61 60 63 64 66 66 66 66 65 65 66 65 64 62 65 64 66 67 64 63 63 63 64 64 64 64 64 65 65 66 66 67 67 67 67 67 68 69 69 70 71 71 72 73 73 73 73 73 73 73 73 74 73 72 73 73 75 73 75 74 73 73 73 74 73 74 74 74 73 72 72 72 72 71 72 72 72 72 72 72 72 73 73 72 72 72 72 72 72 73 73 74 73 73
60 58 61 60 60 64 65 66 65 66 66 68 66 65 64 65 65 66 64 66 65 62 63 63 63 63 63 63 64 65 65 65 65 66 67 67 67 67 68 69 69 70 70 71 71 72 73 73 73 73 73 73 73 74 73 73 73 73 74 73 73 76 73 73 73 74 74 74 75 75 74 72 72 72 71 71 72 72 72 72 72 72 72 72 73 72 73 72 72 72 73 73 73 73 73 73 72
61 61 59 58 62 65 65 66 66 68 67 67 65 64 65 66 66 64 66 68 65 62 63 62 63 62 63 63 64 65 65 65 65 66 66 67 67 67 68 69 70 69 70 71 71 72 73 73 73 73 73 73 73 74 73 73 73 73 73 73 73 76 73 73 74 73 73 74 74 74 74 72 72 72 72 72 72 72 72 72 72 72 72 72 72 71 72 72 72 72 72 72 73 73 73 73 73
60 59 61 61 64 65 66 65 66 66 66 66 63 63 64 66 66 61 67 68 65 62 62 62 62 62 63 63 64 65 65 65 65 66 66 67 67 67 68 69 69 70 71 71 71 72 73 73 73 73 73 74 73 73 74 73 73 73 73 73 73 74 73 74 74 73 73 74 74 74 74 74 73 72 72 72 72 72 72 71 71 72 72 72 72 71 72 72 72 72 72 72 72 72 72 71 72
60 62 62 63 64 65 66 66 66 67 65 65 64 63 65 66 66 62 67 67 68 62 61 62 61 62 62 63 64 64 65 65 66 66 66 66 67 67 68 69 69 70 70 71 71 72 73 72 72 73 73 73 73 73 74 73 73 73 73 73 73 73 74 73 73 74 74 73 75 74 74 74 75 72 72 72 72 72 71 72 72 71 72 72 72 72 71 72 73 73 74 74 74 72 72 71 70
61 60 59 61 63 63 64 65 66 66 64 66 65 62 61 62 62 65 67 69 68 62 61 61 61 61 62 62 63 64 64 65 65 66 66 67 67 67 67 68 69 70 70 71 72 72 72 72 72 73 73 73 73 74 74 73 73 73 73 73 74 74 73 73 73 73 73 74 74 74 74 74 75 73 72 73 74 71 71 72 72 72 71 72 72 73 73 73 74 74 72 74 73 73 71 70 73
59 60 60 59 60 60 63 65 66 66 65 66 65 55 58 61 63 65 68 68 65 61 60 60 60 61 61 62 62 63 64 65 65 65 66 67 67 67 67 68 69 69 70 71 71 71 72 72 72 73 73 73 73 74 74 73 73 73 73 73 74 73 73 73 74 73 74 74 74 74 74 74 74 73 73 72 72 71 71 71 71 72 72 73 73 73 73 74 74 72 73 72 75 74 71 70 71
57 59 59 57 57 57 63 64 66 64 66 66 64 56 58 61 63 66 67 67 62 59 59 59 60 60 61 61 62 63 63 64 64 65 66 66 67 67 67 67 68 69 70 71 71 71 71 71 72 73 74 73 74 74 74 73 73 73 73 73 73 73 73 73 73 73 73 74 74 74 74 74 74 73 73 72 72 71 71 71 71 71 72 74 74 74 74 74 73 73 75 73 72 72 72 74 69
57 54 53 56 54 55 61 64 65 62 64 66 59 55 58 61 64 66 67 66 64 58 58 58 59 60 60 61 61 62 62 63 64 64 65 66 66 66 67 66 68 69 69 70 71 71 71 72 73 72 73 73 73 73 73 73 73 73 72 74 72 72 73 72 72 72 73 74 75 74 74 74 75 73 73 72 71 71 71 71 71 72 74 74 75 74 75 73 73 74 75 74 72 72 73 71 72
50 52 53 54 54 56 58 62 65 65 64 64 63 55 59 60 65 66 67 64 63 60 58 57 59 59 60 60 60 60 61 62 63 63 64 65 65 66 66 66 67 68 69 70 71 71 71 72 73 72 72 72 72 73 72 72 72 72 72 73 71 72 72 72 72 72 73 74 75 74 74 75 75 73 73 73 71 71 71 71 72 74 75 75 74 73 73 75 73 74 73 75 74 72 72 73 71
45 43 53 54 53 56 54 61 63 64 63 61 64 59 59 62 65 66 67 64 62 60 59 58 58 59 59 59 59 59 60 61 61 62 63 64 64 65 64 67 67 68 69 70 70 71 70 71 72 72 71 71 71 72 71 71 72 72 71 72 72 71 71 71 71 72 73 74 74 74 75 76 76 75 74 73 72 73 72 73 73 75 75 74 73 73 73 74 74 73 73 74 76 73 72 72 71
44 49 52 53 54 56 55 57 60 62 62 61 62 59 59 63 64 66 66 64 62 60 60 59 58 58 58 58 58 57 58 58 59 61 62 63 63 63 63 66 67 68 68 69 70 70 71 71 71 72 71 71 70 71 71 71 71 71 71 71 71 70 70 71 71 72 73 74 74 75 76 77 77 75 75 75 73 74 73 73 74 75 75 73 72 72 73 74 75 74 74 74 74 74 73 73 72
39 48 50 53 53 54 53 57 61 61 60 59 60 58 60 62 64 64 65 65 61 60 62 63 62 58 58 57 57 57 57 56 57 60 61 62 62 62 63 66 67 67 68 69 70 70 70 71 71 72 71 70 70 71 71 70 70 71 71 71 70 70 70 71 71 72 73 74 75 76 76 76 76 75 74 74 74 74 73 74 75 75 74 72 72 71 71 71 73 73 73 76 73 73 73 73 72
22 24 50 53 52 52 55 58 60 61 60 59 58 60 61 62 62 63 65 65 62 61 61 63 63 59 57 57 57 56 56 54 56 59 61 62 61 61 63 65 66 67 68 69 69 69 70 70 71 71 71 70 70 70 70 70 69 70 70 70 69 69 69 70 71 72 73 74 76 76 76 76 76 76 76 75 74 76 74 74 74 74 74 73 72 71 72 73 74 75 76 75 75 71 70 72 72
21 20 27 44 52 50 53 56 59 60 59 57 59 60 61 61 62 63 64 63 62 61 61 62 62 59 58 57 56 56 55 54 57 59 60 60 60 61 64 65 67 66 68 68 68 68 69 70 70 71 70 70 70 70 70 70 69 70 70 69 69 68 69 70 70 71 72 74 75 76 76 76 76 76 76 75 75 74 74 74 73 73 73 73 73 75 75 77 74 73 73 71 72 72 69 72 72
20 18 21 22 39 53 56 59 59 59 56 57 59 59 60 61 62 63 63 62 62 61 61 62 62 59 57 57 56 55 54 54 56 58 58 59 60 62 63 64 65 66 67 68 68 68 69 69 70 70 70 70 70 70 70 69 70 70 70 70 69 69 70 71 70 72 74 74 75 76 76 76 75 75 76 77 75 74 74 74 74 73 73 74 73 71 72 72 73 73 73 71 70 71 73 74 72
15 17 19 17 38 52 52 58 59 57 55 58 59 58 59 62 63 63 63 64 65 65 64 64 64 59 57 56 55 55 53 53 55 56 56 58 60 62 62 63 64 66 67 67 67 67 68 70 69 70 71 70 70 71 71 70 70 70 70 70 70 69 70 73 72 73 74 74 75 75 75 76 75 75 76 76 75 75 74 74 74 73 73 74 72 71 72 72 73 74 73 75 71 69 69 69 75
13 13 14 14 50 51 54 57 57 57 59 60 58 57 58 60 61 60 63 65 64 63 64 64 64 64 61 61 60 56 53 53 54 55 56 58 60 60 61 63 64 65 66 66 66 67 68 69 69 70 71 70 70 72 71 70 72 71 71 71 72 72 72 72 72 72 73 74 75 74 75 76 75 75 76 76 76 75 74 73 73 74 74 74 73 72 72 73 73 73 74 74 72 70 69 70 72
8 10 11 12 51 52 56 57 55 55 56 58 56 52 53 58 59 60 62 63 63 63 63 62 62 63 64 63 62 64 57 53 54 55 56 58 59 60 61 63 64 65 66 66 66 67 67 68 69 70 71 71 71 71 71 71 71 70 70 70 69 69 70 71 71 71 73 74 74 75 75 76 76 75 76 76 76 76 75 74 73 73 74 75 75 73 73 73 73 73 73 73 72 71 70 69 69
10 9 11 13 50 55 56 56 54 52 51 56 53 46 46 57 57 58 61 60 60 63 63 61 61 63 63 62 63 64 60 55 54 55 56 58 59 59 60 62 63 64 65 66 66 66 68 69 70 70 70 71 71 72 71 72 70 70 69 69 69 69 70 71 71 72 73 74 74 75 75 76 76 75 76 75 76 76 75 75 74 74 74 74 76 73 73 73 73 73 74 73 73 74 72 69 68
8 10 15 12 51 55 55 55 53 51 56 57 55 51 49 49 55 59 60 60 60 61 62 62 61 62 63 62 62 63 63 58 55 55 56 58 58 58 60 62 63 64 64 65 66 66 68 69 69 70 70 71 71 72 71 72 70 70 69 69 69 69 70 70 71 72 73 74 74 75 74 75 75 75 75 75 75 76 76 75 75 74 74 74 75 75 73 73 73 73 74 74 74 75 72 70 68
10 13 16 28 49 54 55 54 51 50 53 51 55 53 47 47 52 59 61 59 59 59 61 62 62 61 62 62 62 63 64 62 55 55 56 57 58 58 61 62 63 63 64 65 65 67 68 69 70 70 70 71 71 72 71 71 71 70 70 70 70 69 69 70 72 73 73 74 74 74 74 74 75 75 75 75 75 76 77 76 75 74 74 74 76 75 74 74 73 72 73 74 74 74 72 73 72
13 14 23 36 47 51 55 52 48 49 49 48 52 53 45 42 51 57 59 58 58 59 60 61 62 62 62 62 62 64 64 64 59 55 56 57 58 58 61 62 62 63 63 65 65 67 68 69 70 70 70 70 70 71 71 71 72 72 70 70 69 69 70 70 72 72 72 73 73 73 73 73 74 74 74 74 74 75 76 76 75 75 75 75 76 75 75 74 74 73 73 73 73 73 74 74 72
23 14 23 28 37 49 52 52 47 46 44 47 51 52 47 42 52 56 57 57 58 59 60 61 62 62 62 62 62 63 64 64 63 56 56 57 58 59 61 62 62 62 63 65 65 67 68 69 69 69 70 70 70 71 71 71 72 72 70 70 69 69 70 70 70 71 71 71 72 72 73 73 73 73 74 74 75 75 75 76 75 75 75 76 76 75 75 74 74 74 74 74 74 73 73 73 74
14 17 24 26 30 40 43 45 46 44 41 44 50 51 49 43 44 56 57 58 58 59 59 60 61 62 62 62 62 63 64 63 64 59 56 56 58 59 60 61 62 62 63 64 65 67 68 69 69 69 70 70 70 70 71 71 72 72 71 71 70 69 70 70 70 70 71 71 71 72 72 72 72 73 73 73 74 75 75 75 76 75 75 74 75 75 74 74 74 74 74 73 73 73 73 74 73
17 24 27 23 26 34 37 44 42 41 40 41 49 50 46 46 46 53 57 57 58 59 60 60 61 61 62 62 62 63 64 63 64 63 56 56 58 59 59 61 62 62 62 64 65 67 68 68 69 69 69 70 69 70 71 71 72 72 72 71 70 70 70 70 70 70 71 71 71 71 72 72 71 72 73 73 74 75 75 75 75 75 74 75 75 74 74 74 74 74 73 73 73 73 73 72 72
21 20 25 23 23 29 28 36 38 38 39 35 43 49 46 45 46 51 53 57 58 59 59 60 61 61 62 62 62 63 63 63 63 63 56 56 58 58 59 60 61 62 62 64 65 67 68 68 68 68 69 70 69 71 71 71 72 72 73 72 71 71 70 70 70 69 70 71 71 71 72 72 72 72 73 73 74 75 75 75 76 75 75 74 75 74 74 74 74 74 73 73 74 74 74 73 73
21 24 23 25 27 26 23 31 36 36 36 35 45 45 42 41 44 53 55 56 58 59 59 60 61 61 62 62 63 63 63 63 63 64 58 57 58 58 59 60 61 61 62 63 65 66 68 68 68 68 69 70 69 70 71 71 71 72 72 73 71 72 70 71 71 70 70 70 71 71 72 72 72 72 73 74 75 75 75 75 75 75 75 74 74 75 76 74 74 74 74 74 74 74 74 74 74
25 25 25 23 22 32 23 28 31 32 34 40 43 42 47 46 52 55 57 57 57 60 59 60 61 61 62 63 63 63 63 64 65 67 65 64 58 59 59 60 61 61 62 63 65 66 67 68 68 68 69 70 69 71 71 71 71 72 72 72 71 73 72 71 72 72 71 71 71 72 72 72 72 72 73 74 74 75 75 75 75 75 75 74 75 75 75 74 74 73 73 74 74 76 74 74 74
24 23 22 23 26 31 33 39 37 37 38 39 45 45 48 51 50 53 56 57 59 60 60 60 61 61 62 62 63 63 64 65 65 65 65 65 67 64 60 60 60 61 62 63 65 66 66 68 68 68 68 70 69 71 71 71 71 71 72 72 72 72 72 70 71 72 71 71 72 72 72 72 72 73 73 74 74 74 74 75 75 75 75 75 75 75 75 74 74 73 73 73 74 73 74 73 73
24 22 22 29 30 28 26 21 29 27 30 37 45 44 45 44 43 53 55 55 57 57 59 61 62 62 61 62 62 63 64 66 66 66 65 65 67 67 66 67 66 64 62 63 65 66 66 67 68 68 69 69 69 70 71 71 71 71 71 72 72 72 72 71 71 71 71 72 72 72 72 72 72 72 73 73 73 74 74 76 74 74 75 75 76 76 75 75 74 73 73 73 74 74 73 74 75
23 22 27 20 24 24 29 26 22 25 35 39 42 45 45 45 45 53 55 56 57 58 58 59 60 61 61 62 62 64 66 66 66 66 65 65 67 69 68 67 67 68 68 67 68 67 67 67 68 68 68 69 69 69 71 72 71 71 71 71 72 72 72 71 71 72 71 71 72 72 72 72 72 72 73 73 73 73 73 74 74 74 74 75 76 76 75 75 74 74 74 74 74 74 73 73 73
27 21 18 29 28 29 24 24 28 26 33 40 41 43 41 49 49 54 56 58 59 59 61 62 63 63 64 64 64 65 65 65 66 65 65 66 68 69 69 68 67 67 68 68 68 68 67 67 69 68 68 70 70 69 71 71 71 71 71 72 72 72 72 72 71 72 71 71 71 71 72 72 71 72 72 72 73 73 73 73 73 74 74 75 75 75 75 75 75 74 74 74 74 73 73 73 74
23 20 20 23 28 28 21 26 22 32 39 38 40 38 41 48 56 57 58 59 60 61 62 62 62 63 63 64 65 65 66 66 66 66 66 67 68 69 70 70 69 68 68 69 69 70 69 69 69 69 69 70 70 70 70 71 72 71 72 71 71 72 72 72 72 72 71 71 71 71 71 71 72 72 72 71 71 73 73 73 73 73 74 74 75 75 75 75 74 74 74 74 74 74 73 73 73
19 20 18 18 18 19 18 20 26 39 40 38 37 35 38 51 58 58 58 60 61 62 62 62 62 62 63 64 65 66 66 66 66 66 68 69 70 70 70 70 70 69 69 68 70 72 71 70 70 70 69 70 71 70 71 71 72 72 71 71 71 71 72 72 72 71 71 71 71 71 71 71 71 71 72 71 71 71 73 73 73 73 73 74 74 75 74 74 74 74 74 74 74 73 73 73 72